Location: Arrodets-la-Barthe
(43.0306°N, 0.2829°E)
Time: 13:02:51
(UTC+00:00)

ESTCUBE 1 - Pass Details

Date: 11 April 2023
Orbit: 640 x 654 km, 97.9° (Epoch: 29 May)

Event Time Altitude Azimuth Distance (km) Brightness Sun altitude
Exits shadow 22:00:11 34° 342° (NNW) 1,085 ? -31.7°
Drops below altitude 10° 22:02:45 10° 346° (NNW) 2,070 ? -32.0°
Sets 22:04:58 0° 347° (NNW) 2,984 ? -32.2°
